Terminal Aerodrome Forecast
Issued by NWS Chicago, IL

Home | Current Version | Previous Version | Graphics & Text | Print | Product List | Glossary On
Versions: 1 2 3 4 5 6 7 8 9 10 11 12 13 14 15 16 17 18 19 20 21 22 23 24
154
FTUS43 KLOT 271745
TAFRFD
TAF
KRFD 271745Z 2718/2818 17013G18KT P6SM VCSH SCT025 BKN150
     FM271900 17011KT P6SM VCTS BKN040CB BKN100
      TEMPO 2721/2724 -TSRA BKN040CB BKN100
     FM280000 18009KT P6SM SCT010 OVC020
     FM280800 17010KT 6SM BR OVC010
     FM281500 20013KT P6SM VCSH BKN040=

USA.gov is the U.S. government's official web portal to all federal, state and local government web resources and services.